Temp
10 10 9 9 10 10 10 9 9 9 9 9 9 8 8 9 10 10 11 11 11 11 12 12 11 11 11 11 11 11 11 11
12 11 9 9 9 9 9 9 9 9 9 9 8 8 9 9 10 10 11 11 11 11 12 11 11 11 11 11 11 11 11 11
11 12 11 8 9 10 9 9 9 9 9 9 9 9 9 9 10 10 10 11 11 11 11 11 11 11 11 11 11 11 10 10
11 12 12 11 9 9 9 9 9 9 9 8 8 9 9 9 10 10 11 11 11 11 11 11 11 12 11 11 11 11 11 10
13 13 13 12 11 8 8 8 9 9 9 9 9 10 10 10 11 11 11 11 11 11 11 11 11 11 11 11 11 11 11 10
14 15 15 13 12 11 9 8 8 9 9 9 9 9 10 10 11 11 11 11 11 11 11 11 11 12 11 11 11 12 11 10
15 15 15 14 13 12 11 10 9 9 9 9 9 9 10 9 10 10 10 10 11 11 11 11 11 11 11 11 11 12 11 11
15 15 14 15 14 13 12 11 10 10 10 10 9 9 10 10 10 10 10 10 10 10 10 11 11 11 11 11 11 11 11 11
16 17 16 16 16 15 14 13 12 11 10 10 10 10 9 9 9 10 10 10 10 10 11 11 11 11 11 11 11 11 11 10
17 16 17 16 17 17 16 15 14 13 13 12 11 10 10 10 9 10 10 10 11 11 11 11 11 11 11 11 11 11 11 11
17 16 17 17 17 17 16 16 16 16 15 14 13 13 12 10 10 11 11 11 11 11 11 11 11 11 11 11 11 11 11 10
19 18 18 17 17 17 16 16 16 15 15 15 14 14 13 12 13 14 14 13 13 13 13 12 12 11 11 11 11 11 10 9
20 18 18 17 17 17 17 16 16 16 15 15 15 15 14 14 14 13 12 12 13 13 12 13 12 11 11 12 11 11 9 9
20 20 19 19 17 17 18 18 18 16 15 15 14 14 14 15 15 14 14 13 13 12 12 13 12 12 11 11 10 10 9 9
21 21 21 20 19 18 19 19 17 16 16 15 15 15 15 15 15 14 14 14 13 13 13 14 13 11 12 11 10 9 9 9
21 21 21 21 21 19 19 19 19 18 16 16 17 16 15 14 13 14 14 14 14 13 13 13 13 12 12 11 9 9 9 9
20 21 21 21 21 21 21 21 21 20 19 19 17 17 16 15 14 13 12 12 12 12 12 12 11 11 11 10 9 9 9 9
20 21 21 21 22 22 22 22 21 20 20 19 18 17 17 16 15 12 12 11 10 11 10 10 10 10 10 9 9 9 8 8
20 21 21 21 21 22 21 21 21 21 20 20 19 18 18 17 15 13 11 10 9 9 9 9 9 10 9 9 8 8 7 7
Height
1475 1476 1478 1480 1482 1484 1486 1487 1491 1496 1500 1507 1512 1518 1524 1530 1535 1540 1546 1551 1556 1560 1562 1566 1568 1571 1573 1575 1577 1578 1581 1582
1472 1474 1476 1478 1480 1482 1484 1487 1491 1493 1498 1504 1510 1516 1522 1528 1535 1538 1544 1549 1553 1557 1560 1563 1566 1568 1572 1573 1574 1577 1578 1580
1469 1471 1473 1475 1477 1480 1482 1485 1489 1493 1497 1502 1509 1514 1521 1527 1531 1536 1541 1545 1550 1553 1556 1560 1563 1566 1569 1569 1571 1573 1575 1577
1464 1466 1469 1471 1473 1476 1480 1482 1487 1491 1496 1501 1506 1514 1519 1524 1528 1532 1536 1541 1546 1550 1554 1558 1560 1563 1565 1566 1566 1568 1571 1572
1459 1461 1464 1467 1469 1472 1476 1480 1484 1489 1493 1497 1502 1505 1511 1517 1522 1528 1532 1537 1542 1547 1550 1553 1556 1559 1561 1562 1563 1564 1567 1566
1451 1454 1459 1464 1467 1469 1472 1477 1481 1485 1489 1495 1499 1505 1510 1514 1519 1526 1529 1533 1539 1543 1547 1549 1552 1553 1557 1557 1558 1559 1562 1562
1446 1450 1454 1458 1462 1465 1467 1471 1475 1479 1484 1489 1495 1500 1505 1510 1515 1521 1526 1530 1534 1537 1540 1544 1547 1549 1550 1551 1553 1555 1555 1556
1438 1443 1445 1450 1455 1458 1462 1465 1469 1473 1478 1482 1488 1495 1500 1505 1510 1515 1519 1523 1527 1531 1534 1537 1539 1542 1544 1546 1548 1548 1549 1549
1430 1433 1438 1442 1448 1453 1456 1460 1463 1467 1472 1476 1482 1488 1493 1499 1505 1510 1513 1516 1520 1525 1528 1530 1532 1533 1537 1540 1541 1542 1542 1542
1423 1426 1431 1436 1440 1444 1449 1454 1458 1461 1464 1469 1474 1478 1483 1488 1496 1500 1505 1510 1513 1517 1519 1520 1523 1526 1529 1531 1531 1533 1533 1533
1416 1419 1423 1428 1433 1438 1443 1447 1451 1456 1459 1462 1466 1470 1475 1481 1486 1489 1494 1498 1502 1507 1509 1511 1513 1517 1519 1521 1522 1523 1523 1523
1412 1414 1418 1423 1428 1432 1435 1440 1444 1448 1452 1456 1459 1462 1467 1472 1475 1479 1482 1486 1490 1494 1497 1499 1502 1505 1508 1510 1512 1514 1513 1512
1409 1411 1414 1417 1421 1424 1427 1432 1435 1439 1444 1449 1452 1456 1460 1463 1465 1467 1472 1475 1481 1483 1485 1489 1493 1495 1498 1501 1502 1504 1505 1501
1405 1406 1408 1410 1414 1417 1419 1423 1426 1431 1435 1439 1444 1448 1451 1452 1455 1459 1463 1469 1472 1474 1477 1479 1483 1485 1488 1490 1492 1494 1495 1494
1401 1403 1402 1404 1406 1409 1412 1415 1419 1423 1427 1430 1433 1437 1439 1442 1447 1450 1454 1458 1462 1464 1468 1471 1475 1476 1476 1478 1481 1483 1484 1487
1397 1397 1398 1399 1400 1403 1405 1407 1410 1413 1418 1420 1421 1426 1431 1436 1439 1442 1446 1449 1451 1454 1459 1462 1465 1467 1467 1470 1472 1473 1475 1477
1392 1391 1393 1394 1395 1396 1398 1401 1403 1406 1408 1412 1415 1418 1421 1424 1428 1432 1436 1439 1442 1444 1446 1450 1453 1455 1458 1460 1461 1464 1465 1468
1387 1387 1387 1387 1388 1390 1392 1395 1396 1398 1401 1405 1408 1411 1413 1417 1421 1424 1427 1430 1433 1435 1438 1440 1441 1444 1448 1452 1453 1455 1456 1457
1381 1382 1381 1381 1382 1383 1386 1387 1389 1392 1394 1397 1400 1403 1407 1410 1413 1416 1419 1422 1425 1427 1431 1433 1434 1436 1440 1443 1444 1447 1448 1450
Wind_Speed
10 9 11 13 13 15 25 28 31 32 33 37 42 40 41 46 42 36 34 34 30 28 24 22 22 21 18 15 11 11 11 11
11 9 12 14 13 16 19 30 27 33 36 36 41 40 40 42 44 35 37 36 31 28 25 23 23 21 17 14 12 12 13 14
16 14 14 17 17 17 22 23 31 33 37 36 40 42 41 41 35 35 38 36 32 28 27 25 25 21 21 16 14 15 17 16
23 20 16 15 20 22 22 24 30 36 35 37 38 36 37 40 40 39 36 35 32 31 28 26 22 22 21 18 15 16 19 19
25 23 21 20 18 21 23 24 30 34 40 37 45 43 43 45 45 43 37 33 31 33 28 27 25 24 23 21 18 18 20 23
31 28 23 19 20 22 25 27 28 32 32 40 39 44 44 43 46 50 44 40 39 37 35 28 30 30 25 24 23 23 22 24
31 28 25 23 21 23 25 27 30 32 35 41 41 49 48 45 45 49 48 40 46 44 41 39 32 30 26 23 24 25 25 25
29 32 32 29 27 25 26 28 31 36 37 40 44 45 48 52 52 47 49 48 43 42 39 40 39 36 33 30 28 27 29 31
26 32 34 32 29 29 28 29 30 33 37 41 42 43 46 49 47 51 55 54 48 44 42 44 44 43 43 40 39 36 33 35
22 29 34 34 33 32 31 30 30 32 32 35 39 42 44 46 47 50 52 56 54 51 50 49 48 48 48 47 47 45 40 38
17 24 31 34 34 35 34 32 31 30 31 33 35 37 40 43 44 45 47 49 51 52 50 51 50 51 51 46 44 42 41 41
15 18 25 30 32 34 36 37 36 36 35 35 37 38 39 40 39 38 38 39 40 39 37 40 41 43 43 42 43 44 40 39
12 17 19 25 31 32 35 38 40 39 38 39 39 39 39 39 39 41 42 44 39 33 41 40 40 42 41 43 46 45 39 39
10 12 18 22 27 30 30 33 36 40 42 42 42 42 40 41 42 41 41 37 36 42 34 39 36 40 46 46 42 43 37 31
14 16 21 22 25 29 28 28 31 35 38 41 44 44 44 45 44 42 42 40 40 40 41 38 36 30 34 37 40 39 36 32
23 22 21 22 22 26 26 25 26 28 30 33 34 38 42 44 46 45 45 44 44 45 44 45 44 43 46 47 42 33 37 35
29 25 23 24 23 23 25 23 25 27 27 27 30 31 33 36 37 40 41 43 46 48 49 47 49 50 46 41 33 31 32 34
28 27 29 26 26 25 27 25 27 29 28 29 30 30 28 28 31 33 33 35 35 39 43 43 41 36 35 29 33 36 35 34
20 27 31 34 32 27 27 31 30 29 31 31 31 29 27 27 29 28 29 30 31 31 29 29 29 28 24 28 29 30 27 24
Wind_Direction
223 219 209 198 203 200 201 192 192 188 183 189 185 182 186 182 192 198 197 193 193 191 189 193 194 195 189 194 194 195 192 195
219 223 214 201 198 206 201 198 180 196 190 191 188 190 193 192 189 195 202 199 198 196 197 200 204 201 207 203 207 210 207 213
215 222 216 204 203 194 200 201 206 193 185 184 185 186 188 190 197 208 206 202 202 202 203 207 207 206 215 214 219 226 224 226
214 213 215 214 200 201 204 208 203 195 195 188 193 198 199 200 204 209 203 201 206 205 208 212 211 224 224 227 231 238 240 238
220 214 214 211 207 199 203 207 205 204 206 194 192 195 195 198 201 204 201 196 203 209 213 219 218 226 234 237 239 241 245 244
216 218 222 216 207 203 198 202 205 207 205 207 201 200 199 198 201 204 210 209 211 212 222 224 222 227 239 242 249 249 249 249
221 223 218 219 211 209 202 195 198 200 203 203 203 201 203 201 203 206 211 214 213 219 221 228 233 235 239 248 252 257 258 263
212 217 216 216 217 211 210 200 194 198 201 203 210 209 210 209 208 213 214 218 218 220 223 228 235 242 249 256 261 264 265 267
221 218 218 215 214 215 214 211 202 199 201 204 207 212 218 219 224 223 218 221 225 230 234 239 245 248 251 258 260 265 271 275
234 220 220 218 212 214 215 215 213 210 207 205 207 209 213 217 221 223 226 228 230 239 243 244 247 251 255 263 264 261 272 278
234 224 222 221 218 215 216 218 221 220 215 213 214 215 217 220 222 224 225 229 232 237 242 244 247 251 254 254 253 260 275 276
244 229 226 224 222 221 222 221 222 222 222 221 220 221 221 222 226 227 229 232 234 237 248 247 248 246 246 249 255 263 273 278
264 240 232 228 225 223 223 225 226 227 228 226 227 228 227 227 229 229 231 233 232 237 242 248 254 249 247 250 258 268 270 280
267 245 239 236 233 229 227 227 230 233 231 231 232 231 232 235 236 236 237 236 233 239 249 253 258 248 252 257 265 267 268 249
270 261 249 245 236 234 235 237 236 236 237 237 237 238 238 239 239 240 239 239 238 244 244 249 255 254 258 265 274 270 264 254
273 265 253 243 242 240 237 239 242 243 238 238 240 244 246 245 245 246 245 244 245 246 246 249 251 255 259 266 275 262 262 258
278 277 256 251 250 246 234 236 243 244 241 240 240 242 246 250 253 253 252 251 249 251 252 252 254 256 259 268 267 267 253 252
275 269 275 266 262 249 237 233 242 242 235 239 239 239 243 251 257 255 253 251 252 253 256 257 259 263 264 268 269 262 255 252
278 283 275 257 258 258 249 241 241 246 239 237 238 238 241 246 251 254 252 250 250 254 258 261 261 259 262 261 253 253 242 232